Location: McFarlands Corners
(41.4117°N, 81.3382°W)
Time: 17:04:48
(UTC+00:00)

Transit 2A - Pass Details

Date: 16 February 2026
Orbit: 590 x 954 km, 66.7° (Epoch: 7 March)

Event Time Altitude Azimuth Distance (km) Brightness Sun altitude
Rises 01:18:31 0° 338° (NNW) 3,605 9.8 -26.7°
Reaches altitude 10° 01:22:29 10° 2° (N) 2,613 8.8 -27.4°
Enters shadow 01:24:03 13° 16° (NNE) 2,368 8.4 -27.7°
